Theta_e
306 308 313 315 318 320 320 318 312 310 313 317 317 317 317 317 316 316 321 321 320 320 315 315 321 321 321 320 322 323 323 325 326 327 327 326 326 326 326 327 327 331 339 345 342
307 307 307 312 314 316 319 320 318 312 309 312 316 317 317 317 317 318 320 320 320 319 315 319 321 322 322 321 322 323 323 324 326 326 326 326 326 326 326 326 327 326 331 341 342
306 306 306 306 311 312 314 319 320 319 316 309 311 316 317 318 320 319 320 320 319 317 315 319 321 322 322 322 323 323 323 325 326 324 324 325 325 325 325 325 326 327 328 332 335
305 305 306 306 305 309 310 314 319 320 320 312 309 313 317 318 321 320 319 319 317 316 317 319 320 321 322 323 323 324 323 324 324 324 323 323 323 324 324 324 325 325 326 330 331
306 307 306 305 305 304 308 308 316 320 320 319 310 310 317 320 319 320 321 317 315 316 319 319 320 320 322 322 322 324 324 324 324 323 323 322 322 323 324 324 323 323 324 325 325
305 307 307 306 305 306 304 307 309 317 319 319 316 311 318 320 318 320 321 320 319 319 319 319 319 320 321 322 322 323 323 323 323 323 322 322 322 322 322 322 322 322 323 323 323
303 304 307 307 307 305 305 305 306 311 318 319 319 316 319 318 318 320 322 321 320 319 320 319 319 319 320 321 321 322 322 322 323 322 323 322 322 322 322 322 322 322 323 323 323
301 302 305 307 307 305 304 304 306 307 316 319 318 317 319 315 312 319 321 321 320 320 319 320 319 319 320 320 322 322 322 322 322 322 322 322 321 323 323 323 322 322 323 323 323
300 301 302 305 308 306 305 307 306 306 311 318 319 318 319 314 313 317 320 322 322 321 320 319 319 320 320 320 321 322 321 321 321 323 323 323 322 323 322 323 323 322 322 323 325
300 302 302 304 307 307 306 307 307 306 307 314 318 319 320 317 316 315 319 320 322 321 320 319 319 320 320 321 321 320 322 321 322 323 323 322 322 323 323 323 323 322 322 322 323
301 303 303 302 306 308 307 307 307 308 309 316 319 320 320 319 314 318 317 318 320 321 322 320 320 320 319 321 321 321 321 321 323 324 323 323 322 323 323 323 323 323 323 322 322
301 303 304 304 304 308 307 310 308 313 313 309 317 319 319 320 317 316 317 318 319 322 322 322 322 320 320 320 321 321 321 321 323 323 323 322 322 322 323 323 323 323 323 323 322
302 304 305 305 303 306 308 308 309 310 314 314 318 318 320 320 320 316 318 318 319 321 322 322 322 321 320 320 321 322 321 322 322 322 322 321 321 321 322 322 322 322 323 322 322
301 302 304 305 305 305 308 309 310 310 313 313 317 319 319 320 320 318 318 318 319 320 322 322 321 321 321 321 321 322 321 321 321 322 321 321 321 322 322 324 325 323 323 323 322
301 302 303 303 306 305 308 310 310 310 310 309 311 316 319 319 319 318 318 318 320 320 320 322 321 321 322 322 322 321 321 321 321 321 321 320 320 321 322 322 323 325 324 325 325
300 302 304 305 305 307 309 310 310 311 312 309 314 315 318 320 320 320 317 317 318 319 320 320 320 322 322 322 321 322 321 321 321 321 322 321 321 321 321 323 324 325 324 324 325
300 302 305 306 306 306 310 310 312 311 309 309 316 319 319 320 320 321 320 319 321 321 321 320 320 321 322 321 322 321 322 322 322 322 322 320 320 321 322 324 324 326 324 324 325
300 302 306 305 306 306 310 310 313 311 309 309 309 319 320 319 320 320 321 320 320 319 319 319 321 320 321 322 321 323 322 323 322 323 322 321 320 322 324 325 325 324 324 324 328
300 303 305 306 307 307 310 309 313 311 310 309 309 311 318 320 320 321 322 323 319 318 319 318 319 320 320 321 321 322 323 322 323 323 324 322 323 325 325 326 327 325 324 323 326
300 303 305 306 307 308 310 311 312 311 310 310 309 311 318 318 320 321 322 321 320 319 317 319 320 319 320 320 321 321 322 323 323 324 324 322 323 323 326 326 326 326 325 324 325
303 305 306 306 306 307 310 310 311 311 311 310 310 310 312 318 319 320 322 321 320 320 319 318 320 320 319 320 320 320 320 322 323 323 324 324 324 325 325 329 328 326 325 324 324
300 305 307 307 307 304 307 309 310 311 310 311 312 310 312 314 319 322 322 322 321 321 321 319 320 319 320 320 320 321 320 321 323 324 324 324 325 326 328 327 328 326 325 325 325
299 300 306 307 307 307 307 308 310 311 312 312 313 312 313 313 314 315 317 318 319 322 322 321 320 320 319 319 320 320 321 320 321 323 324 325 324 323 323 324 323 326 325 325 327
299 304 304 303 306 308 308 310 311 310 311 312 312 312 314 315 315 317 317 318 319 320 321 321 322 321 320 320 319 321 320 320 320 322 324 323 324 323 324 326 325 325 326 328 328
298 302 304 308 303 308 309 308 310 311 310 311 313 312 314 315 315 315 316 316 316 317 320 322 321 321 320 319 320 318 321 320 320 320 322 323 322 322 322 325 327 326 327 326 327
299 300 303 304 305 306 307 309 310 309 310 311 312 312 313 314 314 314 313 315 316 316 318 322 324 323 323 320 319 320 320 320 320 320 319 321 323 323 323 322 324 326 326 326 325
299 300 301 303 306 306 307 308 309 310 310 311 311 311 312 313 313 312 312 313 315 317 317 317 316 324 322 322 321 320 320 321 320 320 320 321 321 322 322 322 321 322 325 326 326
Wind_Speed
19 22 24 22 21 22 21 20 18 19 20 20 21 20 19 20 20 17 18 17 13 14 11 9 10 12 12 14 16 11 10 13 19 13 10 10 7 5 4 4 1 5 14 17 18
19 19 22 24 24 21 22 21 21 18 18 19 20 20 18 20 21 24 20 21 20 19 13 9 11 11 14 14 17 12 10 19 7 11 8 9 2 9 3 11 7 7 7 9 13
19 21 21 23 26 23 22 21 22 20 18 18 18 18 17 15 20 23 19 19 20 19 16 11 12 15 17 18 18 17 14 19 12 7 9 8 8 5 7 9 10 14 17 17 13
20 19 21 22 22 25 24 23 21 21 19 17 16 16 16 11 8 4 5 13 13 14 12 14 14 16 16 16 21 16 23 20 18 4 5 8 9 10 10 14 14 8 1 15 19
19 21 21 21 22 23 25 23 23 22 20 17 14 14 15 17 28 14 13 6 7 8 11 15 17 17 17 19 20 18 18 19 16 16 8 12 13 14 15 16 14 15 13 13 14
24 21 21 22 22 22 23 23 23 21 20 18 12 14 17 27 25 20 11 9 9 11 14 16 16 18 20 21 20 18 10 19 26 14 16 14 17 18 18 21 18 19 20 20 23
26 24 21 22 22 21 22 21 22 22 19 20 14 13 20 32 12 16 19 15 10 9 12 13 15 18 12 14 19 21 13 13 19 17 15 16 17 18 22 23 20 20 17 16 18
26 26 23 22 22 23 21 20 20 21 22 20 17 13 24 17 32 22 13 15 15 13 12 13 8 14 20 16 9 12 13 16 18 22 25 19 19 17 25 26 23 24 19 18 18
26 24 25 23 23 21 20 18 18 20 24 16 18 15 19 15 34 26 27 23 17 20 16 14 10 17 17 15 13 16 16 20 21 22 18 19 16 18 24 10 10 11 14 17 15
24 23 23 23 22 19 18 16 15 19 22 22 19 11 22 23 21 29 24 24 21 17 20 17 12 12 15 15 17 18 20 20 19 17 17 17 17 16 21 11 14 17 18 19 20
23 22 22 23 24 18 15 11 9 9 19 14 12 17 12 20 16 23 27 27 24 20 18 25 14 19 23 22 20 20 22 22 18 23 18 15 16 15 18 21 22 26 24 24 26
23 22 21 21 24 19 19 28 21 4 12 36 33 32 42 32 16 23 24 29 31 24 21 19 24 23 21 22 22 23 24 23 18 16 6 12 16 17 16 18 24 25 26 25 25
22 19 16 16 18 26 30 37 23 18 9 19 29 36 27 21 27 24 27 33 28 25 26 25 23 22 24 22 23 23 22 20 21 17 19 11 20 18 20 28 34 33 26 25 25
23 21 16 12 20 29 38 27 19 11 5 11 18 15 37 26 28 29 29 31 26 31 28 27 25 26 26 27 24 22 21 19 20 17 15 16 16 18 13 17 17 28 24 22 23
23 21 20 22 20 31 21 24 22 10 7 9 26 19 21 28 13 34 32 31 28 29 19 30 28 27 28 25 26 24 18 18 17 17 18 22 13 13 16 17 18 16 24 26 23
23 21 21 26 35 25 23 23 24 6 10 7 13 25 21 41 38 21 41 34 33 26 27 29 35 29 30 26 20 20 22 18 16 13 16 20 17 15 15 18 16 10 11 11 16
25 24 22 27 39 29 26 27 9 12 9 15 11 21 27 28 32 30 26 26 23 26 27 29 31 27 30 28 27 24 16 12 14 13 18 15 16 18 12 20 22 10 14 13 16
27 24 23 29 29 27 27 10 13 12 23 9 23 17 26 26 28 30 33 25 26 24 20 23 22 31 24 32 24 26 20 12 17 14 17 20 24 18 19 17 16 10 11 7 6
28 20 22 22 29 35 24 13 11 17 28 29 25 25 24 25 22 26 30 29 30 30 26 24 33 22 29 27 25 25 24 26 19 21 15 14 21 18 20 8 7 14 17 13 10
29 19 23 21 30 38 14 19 8 23 24 30 33 28 22 25 23 17 28 31 31 30 32 22 21 27 27 31 24 26 19 20 15 20 23 16 18 11 10 13 14 11 14 17 18
18 7 7 21 30 25 14 9 24 30 28 28 29 31 30 17 26 28 13 29 33 31 30 29 22 20 28 28 33 17 22 19 16 15 16 21 16 12 17 9 12 13 15 17 21
11 4 6 26 9 3 8 11 26 25 37 29 24 27 30 26 23 28 23 21 32 30 31 32 11 22 25 30 31 26 26 25 11 28 23 17 14 7 3 5 5 11 17 21 20
13 5 13 31 9 13 4 17 19 26 26 29 28 10 18 30 28 23 19 30 35 23 29 24 22 22 20 21 23 30 28 28 26 18 21 15 20 13 21 15 19 11 13 16 15
7 3 5 5 23 14 7 6 10 33 28 27 26 24 17 17 18 8 16 12 24 27 39 26 25 27 23 25 22 27 31 27 25 17 17 19 25 16 14 10 7 17 16 16 15
4 4 4 3 7 14 13 5 17 14 30 31 24 28 24 17 15 15 16 24 24 26 21 23 27 31 31 35 24 34 25 29 26 26 21 22 29 27 18 11 11 17 17 17 20
5 3 7 6 14 12 19 23 23 23 22 28 28 26 23 25 23 23 24 23 22 19 16 18 26 25 30 31 36 31 32 29 29 26 28 26 29 25 21 23 19 23 25 25 26
16 20 16 12 12 7 16 26 31 26 26 33 32 31 25 26 27 26 25 25 17 11 7 7 5 18 25 29 29 38 26 28 27 28 24 27 31 22 24 25 25 26 23 31 26
Wind_Direction
271 262 257 257 252 255 262 259 255 265 267 268 271 277 285 288 281 280 275 268 261 257 266 267 274 264 257 258 253 263 265 259 252 279 119 130 161 171 332 294 84 113 66 106 132
280 272 262 258 254 253 253 256 255 257 260 265 270 275 283 292 291 282 265 264 264 263 260 266 267 251 248 253 240 224 241 251 6 359 43 125 295 130 224 222 167 165 136 134 155
282 279 271 265 257 253 254 252 254 255 258 258 266 270 279 295 306 278 247 251 253 253 243 260 271 269 253 249 238 237 245 266 328 36 344 326 168 227 238 273 238 194 188 173 185
287 284 275 267 262 257 254 251 256 253 256 255 259 264 267 268 262 138 271 250 251 244 233 253 249 251 251 250 243 242 253 270 280 31 316 279 279 258 211 254 284 309 318 177 189
289 283 277 273 264 260 256 256 251 252 253 254 251 259 256 245 238 291 302 285 243 234 245 243 241 240 248 247 253 235 245 261 268 278 267 286 276 273 272 262 272 269 260 235 242
286 283 276 272 266 262 257 255 254 251 251 248 246 258 243 253 244 247 263 265 259 234 243 240 246 244 264 255 260 259 254 255 266 242 254 255 262 258 255 258 260 256 250 237 239
282 279 275 273 266 261 259 253 251 254 246 246 241 254 252 239 232 236 247 243 250 238 254 244 245 258 252 268 259 271 276 263 264 256 254 255 261 252 256 252 250 250 239 246 251
291 279 269 269 268 260 256 251 249 249 246 230 242 248 253 245 241 245 237 228 239 247 250 262 271 260 258 264 262 261 244 252 249 237 237 226 258 264 262 230 239 244 252 235 239
300 290 271 258 263 262 253 249 246 248 244 237 224 228 254 255 226 229 230 239 251 245 243 245 243 247 248 239 250 234 241 236 245 247 235 205 245 251 250 202 231 259 251 249 238
298 295 283 254 252 256 250 247 246 248 253 249 211 229 247 234 225 223 220 227 236 241 229 227 235 239 227 222 224 233 223 242 261 261 201 219 223 247 277 244 241 240 240 255 253
291 292 286 269 239 241 238 240 246 241 226 218 213 213 315 225 216 215 216 217 221 234 225 218 226 223 227 224 243 250 258 247 237 227 199 215 243 256 253 249 230 229 237 241 247
287 289 279 271 238 233 224 220 214 336 243 236 241 229 242 283 259 224 211 205 210 223 222 227 225 229 235 237 233 243 258 261 276 273 202 234 245 253 246 252 257 258 252 239 236
292 284 272 260 243 228 222 229 229 283 264 253 230 234 237 252 250 221 210 210 210 214 218 221 228 222 238 235 238 240 239 249 262 266 270 258 274 268 258 256 251 253 255 245 249
297 286 274 256 238 223 228 224 223 257 275 247 206 242 227 235 245 226 214 216 223 217 219 232 229 235 218 235 234 236 239 246 257 268 259 262 270 258 261 266 254 232 235 253 247
296 284 275 243 222 215 216 205 197 188 234 218 225 199 200 210 210 214 223 219 221 221 211 227 226 225 244 222 230 247 244 249 250 247 255 252 262 256 267 266 269 213 223 226 234
299 280 269 239 226 226 204 192 188 190 213 245 186 198 188 207 225 238 206 222 228 230 228 238 229 229 233 242 238 238 247 255 260 266 258 244 248 256 248 259 259 216 213 222 229
305 281 258 226 223 213 199 185 202 212 226 220 194 184 199 207 212 218 205 216 212 212 230 227 229 231 228 234 231 232 236 227 233 228 240 234 240 240 245 246 252 224 199 222 217
310 285 247 231 218 201 197 215 213 182 211 222 218 191 207 213 210 213 219 210 217 223 219 223 222 216 223 227 222 224 215 228 224 226 250 225 243 246 245 256 210 171 185 191 169
313 288 261 223 205 193 188 197 213 192 204 221 247 220 208 225 226 205 219 226 212 210 227 223 231 212 224 230 212 223 215 225 250 278 288 261 250 243 221 202 170 170 183 207 201
315 291 259 216 196 200 198 214 201 232 203 216 225 231 214 212 221 228 213 221 214 209 224 241 244 220 217 220 206 221 236 211 228 236 251 254 250 256 242 191 188 194 200 204 208
313 234 263 211 194 220 218 198 223 226 229 209 226 233 242 208 226 226 206 233 221 212 214 236 250 247 213 208 215 194 227 241 211 224 233 253 249 237 269 333 204 184 205 216 214
335 261 185 186 175 223 217 194 220 225 234 244 233 231 240 234 220 227 249 218 222 222 213 217 235 244 249 217 213 206 210 226 212 220 226 241 247 267 328 4 360 180 206 203 209
312 281 179 183 201 222 193 225 233 228 235 232 246 251 257 240 258 251 234 237 274 257 225 209 223 245 257 259 239 202 204 221 235 222 231 226 247 234 274 273 246 244 217 203 190
307 294 265 275 218 220 205 197 209 233 244 243 234 233 241 253 241 267 270 261 247 261 273 212 233 220 232 233 230 210 212 215 224 235 225 234 254 232 234 229 256 203 218 174 188
243 264 259 275 233 233 224 234 226 235 226 240 250 231 217 226 236 245 256 269 267 273 278 264 228 235 225 237 232 239 215 212 227 219 229 225 238 239 237 235 198 200 207 225 190
250 247 260 263 279 206 220 225 226 229 231 230 243 242 244 230 230 232 238 253 257 259 292 265 265 228 246 224 233 244 229 218 217 232 231 240 241 243 253 263 257 213 207 218 218
273 265 247 261 264 240 213 225 229 238 229 228 223 239 235 244 240 242 249 259 273 279 250 290 292 233 232 230 228 233 243 219 215 225 230 225 238 243 239 239 244 260 233 220 226